sat.trackr.live / text

‹ back to catalog

STARLINK-31895

NORAD 59849 · 2024-097Q

PAYLOAD ACTIVE UNKNOWN

§ Identity

Operator
Country
US
Launch date
2024-05-23
Launch site
AFETR
Launch vehicle
Mass (kg)
RCS (m²)

Purposes: comms

External: N2YO · Heavens-Above · Gunter

§ Orbital elements

Epoch: 2026-05-24T15:20:12.891840Z

Period
94.27 min
Inclination
43.0013°
Eccentricity
0.0001400
Mean motion
15.27578979 rev/d
Perigee alt
482.1 km
Apogee alt
484.0 km
Semi-major
6,861.2 km
B*
1.6094e-4
RAAN
205.3217°
Arg perigee
265.4036°
Mean anomaly
94.6655°
Rev number
11,353

§ Raw data

STARLINK-318951 59849U 24097Q   26144.63903810  .00004169  00000+0  16094-3 0  99962 59849  43.0013 205.3217 0001400 265.4036  94.6655 15.27578979113537

JSON: /api/v1/satellites/59849 · /tle

For live sub-satellite position, see the globe view (requires WebGL).

§ Visibility from observer

Set your observer location to see the next 7 days of passes ≥ 10°. The values pass through the URL so the page stays shareable.

No JS? Fill the form by hand. The geolocation button needs JavaScript.